Weather History for Weslaco, TX

Change the Weather History Date:

Tuesday, August 6, 2013

  Actual Average (KMFE) Record (KMFE)
Temperature  
Mean Temperature 91 °F 88 °F  
Max Temperature 103 °F 99 °F 106 °F (2013)
Min Temperature 80 °F 77 °F 68 °F (1975)
Degree Days  
Heating Degree Days 0 0  
Month to date heating degree days 0  
Since 1 June heating degree days 0  
Since 1 July heating degree days 0  
Cooling Degree Days 26 23  
Month to date cooling degree days 137  
Year to date cooling degree days 2694  
Since 1 June cooling degree days 1439  
Growing Degree Days 41 (Base 50)    
Moisture  
Dew Point 69 °F    
Average Humidity 56    
Maximum Humidity 79    
Minimum Humidity 25    
Precipitation  
Precipitation 0.00 in 0.05 in 0.87 in (1941)
Month to date precipitation 0.29  
Year to date precipitation 11.65  
Sea Level Pressure  
Sea Level Pressure 29.89 in    
Wind  
Wind Speed 16 mph (SSE)    
Max Wind Speed 24 mph    
Max Gust Speed 32 mph    
Visibility 8 miles    
Events      
T = Trace of Precipitation, MM = Missing Value Source: NWS Daily Summary

Daily Weather History Graph

Daily Weather History Graph

Search for Another Location

Airport:

Trip Planner

Search our weather history database for the weather conditions in past years. The results will help you decide how hot, cold, wet, or windy it might be!

Date:

Astronomy

Aug. 06, 2013 Rise Set
Actual Time 7:00 AM CDT 8:14 PM CDT
Civil Twilight 6:35 AM CDT 8:39 PM CDT
Nautical Twilight 6:06 AM CDT 9:08 PM CDT
Astronomical Twilight 5:36 AM CDT 9:38 PM CDT
Moon 6:47 AM CDT (8/6) 7:59 PM CDT (8/6)
Length of Visible Light 14h 03m
Length of Day
13h 14m
Waning Crescent, 0% of the Moon is Illuminated
Aug 6
Waning Crescent
Aug 6
New
Aug 14
First Quarter
Aug 20
Full
Aug 28
Last Quarter

Hourly Weather History & Observations

Time (CDT) Temp. Heat Index Dew Point Humidity Pressure Visibility Wind Dir Wind Speed Gust Speed Precip Events Conditions
12:15 AM 82.8 °F 89.0 °F 73.8 °F 74% 29.94 in 10.0 mi SSE 17.3 mph 24.2 mph N/A   Clear
12:35 AM 82.6 °F 88.8 °F 73.8 °F 75% 29.94 in 10.0 mi SSE 16.1 mph 20.7 mph N/A   Scattered Clouds
12:55 AM 82.6 °F 88.8 °F 73.8 °F 75% 29.94 in 10.0 mi SSE 15.0 mph 20.7 mph N/A   Clear
1:15 AM 82.4 °F 88.4 °F 73.8 °F 75% 29.94 in 10.0 mi South 15.0 mph 21.9 mph N/A   Clear
1:35 AM 82.4 °F 88.4 °F 73.8 °F 75% 29.93 in 10.0 mi South 12.7 mph 21.9 mph N/A   Clear
1:55 AM 82.0 °F 87.9 °F 73.8 °F 76% 29.93 in 10.0 mi SSE 11.5 mph 17.3 mph N/A   Clear
2:15 AM 81.9 °F 87.7 °F 73.9 °F 77% 29.93 in 10.0 mi SSE 12.7 mph 17.3 mph N/A   Clear
2:35 AM 81.9 °F 87.7 °F 73.9 °F 77% 29.93 in 10.0 mi SSE 11.5 mph - N/A   Clear
2:55 AM 81.9 °F 88.0 °F 74.3 °F 78% 29.92 in 10.0 mi SSE 9.2 mph 17.3 mph N/A   Scattered Clouds
3:15 AM 82.0 °F 88.1 °F 74.3 °F 77% 29.92 in 10.0 mi SSE 11.5 mph 17.3 mph N/A   Scattered Clouds
3:35 AM 82.0 °F 87.9 °F 73.9 °F 76% 29.91 in 10.0 mi South 12.7 mph 17.3 mph N/A   Scattered Clouds
3:55 AM 81.9 °F 87.7 °F 73.9 °F 77% 29.91 in 10.0 mi South 13.8 mph 18.4 mph N/A   Clear
4:15 AM 81.7 °F 87.3 °F 73.8 °F 77% 29.90 in 10.0 mi South 10.4 mph - N/A   Clear
4:35 AM 81.7 °F 87.1 °F 73.4 °F 76% 29.90 in 10.0 mi South 15.0 mph 18.4 mph N/A   Clear
4:55 AM 81.5 °F 86.5 °F 73.0 °F 75% 29.91 in 10.0 mi SSE 11.5 mph 20.7 mph N/A   Clear
5:15 AM 81.5 °F 86.5 °F 73.0 °F 75% 29.91 in 10.0 mi South 12.7 mph - N/A   Clear
5:35 AM 81.5 °F 86.7 °F 73.4 °F 76% 29.91 in 10.0 mi South 13.8 mph 21.9 mph N/A   Clear
5:55 AM 81.1 °F 86.2 °F 73.4 °F 77% 29.91 in 10.0 mi SSE 12.7 mph 20.7 mph N/A   Clear
6:15 AM 81.0 °F 86.0 °F 73.6 °F 78% 29.92 in 10.0 mi South 10.4 mph - N/A   Scattered Clouds
6:35 AM 80.8 °F 85.8 °F 73.6 °F 79% 29.92 in 10.0 mi South 12.7 mph 17.3 mph N/A   Clear
6:55 AM 80.8 °F 85.8 °F 73.6 °F 79% 29.92 in 10.0 mi South 13.8 mph 18.4 mph N/A   Clear
7:15 AM 80.8 °F 85.6 °F 73.4 °F 78% 29.92 in 10.0 mi South 12.7 mph 18.4 mph N/A   Clear
7:35 AM 81.3 °F 86.5 °F 73.4 °F 77% 29.92 in 10.0 mi SSE 13.8 mph 18.4 mph N/A   Clear
7:55 AM 82.0 °F 87.4 °F 73.0 °F 74% 29.92 in 10.0 mi SSE 15.0 mph - N/A   Clear
8:15 AM 83.1 °F 88.9 °F 72.9 °F 71% 29.93 in 7.0 mi South 13.8 mph 21.9 mph N/A   Clear
8:35 AM 84.4 °F 90.6 °F 72.7 °F 68% 29.93 in 7.0 mi South 15.0 mph 23.0 mph N/A   Clear
8:55 AM 85.5 °F 91.8 °F 72.7 °F 65% 29.94 in 7.0 mi South 19.6 mph 26.5 mph N/A   Clear
9:15 AM 86.4 °F 93.0 °F 72.5 °F 63% 29.94 in 5.0 mi South 20.7 mph 26.5 mph N/A   Haze
9:35 AM 88.0 °F 94.2 °F 71.6 °F 58% 29.94 in 7.0 mi South 17.3 mph 28.8 mph N/A   Clear
9:55 AM 89.6 °F 94.3 °F 69.4 °F 51% 29.94 in 7.0 mi South 23.0 mph 28.8 mph N/A   Clear
10:15 AM 91.2 °F 95.0 °F 67.6 °F 46% 29.94 in 7.0 mi South 20.7 mph 28.8 mph N/A   Clear
10:35 AM 92.3 °F 94.7 °F 65.7 °F 41% 29.93 in 7.0 mi South 21.9 mph 29.9 mph N/A   Clear
10:55 AM 93.0 °F 94.6 °F 64.0 °F 38% 29.93 in 7.0 mi South 21.9 mph 32.2 mph N/A   Clear
11:15 AM 94.5 °F 95.2 °F 62.4 °F 34% 29.94 in 7.0 mi South 23.0 mph 32.2 mph N/A   Clear
11:35 AM 96.1 °F 97.8 °F 63.3 °F 34% 29.93 in 7.0 mi South 23.0 mph 29.9 mph N/A   Clear
11:55 AM 97.0 °F 98.8 °F 63.5 °F 33% 29.93 in 7.0 mi South 18.4 mph 28.8 mph N/A   Clear
12:15 PM 97.3 °F 98.4 °F 62.2 °F 31% 29.93 in 7.0 mi South 24.2 mph 32.2 mph N/A   Clear
12:35 PM 98.1 °F 99.1 °F 62.1 °F 30% 29.91 in 7.0 mi South 24.2 mph 32.2 mph N/A   Clear
12:55 PM 98.6 °F 99.4 °F 61.3 °F 29% 29.91 in 5.0 mi South 19.6 mph 31.1 mph N/A   Haze
1:15 PM 100.4 °F 101.8 °F 61.5 °F 28% 29.90 in 5.0 mi South 17.3 mph 31.1 mph N/A   Haze
1:35 PM 101.1 °F 101.9 °F 60.4 °F 26% 29.90 in 7.0 mi South 21.9 mph 28.8 mph N/A   Clear
1:55 PM 101.3 °F 102.2 °F 61.0 °F 26% 29.88 in 7.0 mi South 23.0 mph 28.8 mph N/A   Clear
2:15 PM 102.7 °F 103.9 °F 60.3 °F 25% 29.87 in 7.0 mi South 19.6 mph 28.8 mph N/A   Clear
2:35 PM 102.2 °F 105.5 °F 64.2 °F 29% 29.86 in 7.0 mi SSE 16.1 mph 27.6 mph N/A   Clear
2:55 PM 101.5 °F 105.6 °F 65.3 °F 31% 29.86 in 7.0 mi SSE 23.0 mph 28.8 mph N/A   Clear
3:15 PM 101.8 °F 105.6 °F 65.3 °F 30% 29.85 in 5.0 mi SSE 20.7 mph 28.8 mph N/A   Haze
3:35 PM 101.8 °F 105.6 °F 64.9 °F 30% 29.85 in 7.0 mi SSE 19.6 mph 26.5 mph N/A   Clear
3:55 PM 101.3 °F 104.6 °F 64.4 °F 30% 29.85 in 7.0 mi South 15.0 mph 28.8 mph N/A   Clear
4:15 PM 101.3 °F 104.0 °F 64.0 °F 29% 29.84 in 7.0 mi SSE 21.9 mph 27.6 mph N/A   Clear
4:35 PM 101.3 °F 104.0 °F 63.9 °F 29% 29.84 in 7.0 mi SE 18.4 mph 26.5 mph N/A   Clear
4:55 PM 99.5 °F 102.6 °F 64.6 °F 32% 29.84 in 7.0 mi SE 20.7 mph 32.2 mph N/A   Clear
5:15 PM 98.8 °F 101.9 °F 64.9 °F 33% 29.84 in 7.0 mi SSE 17.3 mph 31.1 mph N/A   Clear
5:35 PM 97.7 °F 101.2 °F 65.8 °F 35% 29.83 in 7.0 mi SSE 21.9 mph 29.9 mph N/A   Clear
5:55 PM 97.0 °F 99.9 °F 65.5 °F 35% 29.83 in 7.0 mi SSE 23.0 mph 29.9 mph N/A   Clear
6:15 PM 96.4 °F 98.9 °F 64.4 °F 35% 29.82 in 7.0 mi SE 21.9 mph 29.9 mph N/A   Clear
6:35 PM 95.4 °F 97.6 °F 64.2 °F 36% 29.82 in 10.0 mi SSE 21.9 mph 26.5 mph N/A   Clear
6:55 PM 93.7 °F 95.8 °F 64.9 °F 38% 29.82 in 10.0 mi SSE 23.0 mph 28.8 mph N/A   Clear
7:15 PM 92.1 °F 94.8 °F 65.8 °F 42% 29.82 in 10.0 mi SSE 19.6 mph 28.8 mph N/A   Clear
7:35 PM 90.7 °F 94.1 °F 67.3 °F 46% 29.82 in 10.0 mi SSE 20.7 mph 29.9 mph N/A   Clear
7:55 PM 89.2 °F 92.8 °F 68.0 °F 49% 29.83 in 10.0 mi SE 19.6 mph 26.5 mph N/A   Clear
8:15 PM 88.0 °F 92.1 °F 69.1 °F 53% 29.83 in 7.0 mi SSE 16.1 mph 27.6 mph N/A   Clear
8:35 PM 87.1 °F 91.6 °F 69.8 °F 56% 29.84 in 10.0 mi SSE 18.4 mph 23.0 mph N/A   Clear
8:55 PM 86.4 °F 91.1 °F 70.2 °F 58% 29.86 in 10.0 mi SSE 19.6 mph 28.8 mph N/A   Clear
9:15 PM 86.0 °F 91.1 °F 70.9 °F 60% 29.86 in 7.0 mi SSE 17.3 mph 24.2 mph N/A   Clear
9:35 PM 85.1 °F 90.8 °F 71.6 °F 64% 29.87 in 7.0 mi SSE 16.1 mph 24.2 mph N/A   Clear
9:55 PM 84.4 °F 90.0 °F 72.0 °F 66% 29.87 in 10.0 mi SSE 12.7 mph 25.3 mph N/A   Clear
10:15 PM 84.2 °F 90.3 °F 72.5 °F 68% 29.88 in 10.0 mi SSE 19.6 mph 25.3 mph N/A   Clear
10:35 PM 83.7 °F 89.7 °F 73.0 °F 70% 29.88 in 10.0 mi SSE 16.1 mph 28.8 mph N/A   Clear
10:55 PM 83.5 °F 90.0 °F 73.6 °F 72% 29.89 in 10.0 mi SSE 18.4 mph 27.6 mph N/A   Clear
11:15 PM 83.3 °F 90.2 °F 74.1 °F 74% 29.89 in 7.0 mi SSE 19.6 mph 24.2 mph N/A   Clear
11:35 PM 82.9 °F 89.7 °F 74.3 °F 75% 29.90 in 10.0 mi SSE 16.1 mph 20.7 mph N/A   Scattered Clouds
11:55 PM 83.1 °F 89.8 °F 74.1 °F 74% 29.90 in 10.0 mi SSE 20.7 mph 28.8 mph N/A   Scattered Clouds